Regional Weather Roundup
Issued by NWS

Home | Current Version | Previous Version | Graphics & Text | Print | Product List | Glossary On
Versions: 1 2 3 4 5 6 7 8 9 10 11 12 13 14 15 16 17 18 19 20 21 22 23 24 25 26 27 28 29 30 31 32 33 34 35 36 37 38 39 40 41 42 43 44 45 46 47 48 49 50
000
ASUS45 KBOU 031007
RWRCO

WEATHER ROUNDUP FOR COLORADO
NATIONAL WEATHER SERVICE DENVER/BOULDER CO
400 AM MDT SUN MAY 03 2015

NOTE: "FAIR" INDICATES FEW OR NO CLOUDS BELOW 12000 FEET WITH NO
SIGNIFICANT WEATHER AND/OR OBSTRUCTIONS TO VISIBILITY.

COZ001>005-013-030-031-031100-
...NORTHWEST COLORADO...

CITY           SKY/WX    TMP DP  RH WIND       PRES   REMARKS
CRAIG          PTCLDY    37  34  89 CALM      30.02S
HAYDEN         CLEAR     43  34  70 E13       30.04R
MEEKER         MOCLDY    45  35  68 N3        30.01S
MOUNT WERNER   NOT AVBL
STEAMBOAT SPGS CLEAR     37  33  85 W3        30.06S
WALDEN         MOCLDY    34  30  86 CALM      30.10F
$$

COZ006>008-011-031100-
...WEST CENTRAL VALLEYS...

CITY           SKY/WX    TMP DP  RH WIND       PRES   REMARKS
GRAND JUNCTION PTCLDY    58  38  47 SE6       29.91R
MONTROSE       CLOUDY    57  32  38 SE7       30.01S
EAGLE          PTCLDY    39  36  87 S5        30.11R
RIFLE          PTCLDY    47  36  65 S6        30.00S
DELTA          PTCLDY    59  33  37 NE9       29.98R
NUCLA          MOCLDY    59  30  33 E3        30.05S
$$

COZ017>023-064>068-031100-
...SOUTHWEST COLORADO...

CITY           SKY/WX    TMP DP  RH WIND       PRES   REMARKS
DURANGO        MOCLDY    43  33  68 NE3       30.09S
CORTEZ         CLEAR     46  34  62 CALM      30.04S
PAGOSA SPRINGS MOCLDY    39  32  77 W3        30.15S
TELLURIDE      MOCLDY    44  28  52 SE6       30.20S
WOLF CREEK PAS NOT AVBL
$$

COZ009-010-012-014-032>034-037-058>063-031100-
...CENTRAL COLORADO...

CITY           SKY/WX    TMP DP  RH WIND       PRES   REMARKS
ASPEN          MOCLDY    39  33  79 S6        30.11S
BUENA VISTA    NOT AVBL
COPPER MTN     PTCLDY    36  25  64 SW8       30.29S
BERTHOUD PASS  FAIR      28  21  74 NW26G32   30.28S WCI  13
COTTONWOOD PAS PTCLDY    43  30  61 CALM      30.21S
GUNNISON       PTCLDY    39  28  65 CALM      30.17S
KREMMLING      PTCLDY    36  32  87 CALM      30.12S
LEADVILLE      MOCLDY    28  27  96 NE6       30.21S WCI  22
MONARCH PASS   PTCLDY    32  28  86 W17       30.39F WCI  21
SALIDA         PTCLDY    45  38  76 N9        30.20S
SUNLIGHT       PTCLDY    37  28  70 CALM      30.26S
WILKERSON PASS PTCLDY    32  30  93 SW8       30.28S WCI  25
$$

COZ069>075-031100-
...SAN LUIS VALLEY/SANGRE DE CRISTO MOUNTAINS...

CITY           SKY/WX    TMP DP  RH WIND       PRES   REMARKS
ALAMOSA        PTCLDY    38  35  89 NW7       30.12S
LA VETA PASS   PTCLDY    39  28  65 MISG      30.21F
SAGUACHE       PTCLDY    41  34  75 N9        30.16S
$$

COZ035-036-038>040-031100-
...NORTHERN COLORADO FRONT RANGE...

CITY           SKY/WX    TMP DP  RH WIND       PRES   REMARKS
DENVER INTL AP MOCLDY    53  38  56 SW15      29.92F
DMNS CITY PARK   N/A     52  38  57 S6        29.93S
AURORA         MOCLDY    51  38  62 SW12      29.95S
FRONT RANGE AP NOT AVBL
ERIE MUNI ARPT PTCLDY    45  40  82 W3        29.92R
BOULDER MUN AP PTCLDY    61  32  33 W5        29.91S
CENTENNIAL     MOCLDY    54  35  48 SW14      29.96R
BROOMFIELD     PTCLDY    54  34  47 SW3       29.94S
FORT COLLINS   PTCLDY    48  39  71 CALM      29.92S
LONGMONT       PTCLDY    46  39  75 S5        29.93R
$$

COZ041-046-047-076>085-087-088-031100-
...PIKES PEAK/PALMER DIVIDE AND SOUTHERN FOOTHILLS...

CITY           SKY/WX    TMP DP  RH WIND       PRES   REMARKS
COLO. SPRINGS  PTCLDY    46  38  73 N5        30.00F
A. F. ACADEMY  PTCLDY    45  38  75 NE7       30.01F
ELLICOTT       PTCLDY   N/A N/A N/A CALM      29.98F
FALCON         PTCLDY    47  37  68 W9        30.04S
FORT CARSON    PTCLDY    48  40  74 NW14      29.97S
LIMON          PTCLDY    44  39  82 NW5       29.93F
MONUMENT HILL  PTCLDY    48  32  53 SW12      30.02S
TRINIDAD       PTCLDY    47  35  63 SW14      30.00F
$$

COZ042>045-048>051-090-091-031100-
...NORTHEAST COLORADO...

CITY           SKY/WX    TMP DP  RH WIND       PRES   REMARKS
GREELEY ARPT   PTCLDY    45  36  70 N3        29.90S
AKRON          CLEAR     50  43  77 W14       29.88S
BURLINGTON     MOCLDY    51  43  74 W12       29.86S
WRAY           CLEAR     52  45  77 SW8       29.83F
STERLING       CLEAR     46  45  93 S7        29.85S
HOLYOKE        NOT AVBL
FORT MORGAN    CLEAR     46 -17   6 NW8       29.89S
$$

COZ086-089-092>099-031100-
...SOUTHEAST COLORADO...

CITY           SKY/WX    TMP DP  RH WIND       PRES   REMARKS
PUEBLO         PTCLDY    50  44  80 W8        29.93F
LA JUNTA       PTCLDY    51  43  74 MISG      29.89F
LAMAR          PTCLDY    49  46  90 W5        29.87R
SPRINGFIELD      N/A     51  41  68 SW8       29.91F
$$



USA.gov is the U.S. government's official web portal to all federal, state and local government web resources and services.